Weather Roundup
Issued by NWS Chicago, IL

Home | Current Version | Previous Version | Graphics & Text | Print | Product List | Glossary On
Versions: 1 2 3 4 5 6 7 8 9 10 11 12 13 14 15 16 17 18 19 20 21 22 23 24 25 26 27 28 29 30 31 32 33 34 35 36 37 38 39 40 41 42 43 44 45 46 47 48 49 50
000
NZUS59 KLOT 170800
HRRLOT

CHICAGO AREA WEATHER ROUNDUP
NATIONAL WEATHER SERVICE CHICAGO/ROMEOVILLE IL
300 AM CDT WED SEP 17 2014

NOTE: "FAIR" INDICATES FEW OR NO CLOUDS BELOW 12,000 FEET WITH NO
SIGNIFICANT WEATHER AND/OR OBSTRUCTIONS TO VISIBILITY.

* THESE STATIONS ARE NOT UNDER NWS QUALITY CONTROL. THEY ALSO MAY NOT
  REPORT WEATHER SUCH AS PRECIPITATION OR FOG.

ILZ005-006-012>014-019>023-170900-
NORTHEAST ILLINOIS

CITY           SKY/WX    TMP DP  RH WIND       PRES   REMARKS
OHARE          CLEAR     52  46  80 CALM      30.06F
MIDWAY         CLEAR     53  49  86 S3        30.06F
AURORA         CLEAR     41  38  89 CALM      30.07S
WAUKEGAN       CLEAR     46  44  93 CALM      30.05F
DUPAGE AIRPORT CLEAR     44  41  89 CALM      30.06F
WHEELING       CLEAR     48  43  82 CALM      30.07F
NORTHERLY IS     N/A     54  47  77 SE2         N/A
$$

WIZ051-052-058>065-066-070>072-170900-
SOUTHEAST WISCONSIN

CITY           SKY/WX    TMP DP  RH WIND       PRES   REMARKS
MILWAUKEE      CLEAR     49  45  86 CALM      30.06F
KENOSHA*       CLEAR     45  44  97 SW3       30.06F
RACINE*        CLEAR     50  46  86 SW7       30.07F
$$

INZ001>003-010>013-019-020-170900-
NORTHWEST INDIANA

CITY           SKY/WX    TMP DP  RH WIND       PRES   REMARKS
GARY*          NOT AVBL
MICHIGAN CITY* NOT AVBL
RENSSELAER*    NOT AVBL
VALPARAISO     FOG       44  43  96 CALM      30.08F VSB 3/4
$$

LMZ740>746-170900-
SOUTHERN LAKE MICHIGAN

STATION/POSITION TIME  SKY/WX   TEMP WIND        PRES    VSBY
                                AIR  DIR/SP/G
                 (UTC)          (F)  (DEG/KT/KT) (MB)    (MI)
HARRISON CRIB    0700            59  170/ 12/ 14   N/A
BURNHAM HARBOR   0800            54  160/  2/  9   N/A
CALUMET HARBOR   0700            54  170/  5/  6 1017.0F
BURNS HARBOR     NOT AVBL
MICHIGAN CITY    0700            50  140/  4/  6   N/A
$$

ABBREVIATIONS USED IN REMARKS
   TC - TEMPERATURE IN CELSIUS
  WCI - WIND CHILL INDEX
   HX - HEAT INDEX
  VSB - VISIBILITY
$$



USA.gov is the U.S. government's official web portal to all federal, state and local government web resources and services.